• In United Kingdom
  • List of Countries
  • For 7 days
  • Water Temperature
  • Satellite Maps
  • Weather Map
  • Weather Widgets
  • user-avatar
    Login

    Hourly Weather Kabul

    Today, 22 February, Thursday

    Time Temperature Precipitation Wind Pressure Humidity
    00:00 +4°C° 0 mm 2 mps 607 mmHg 51%
    01:00 +4°C° 0 mm 2 mps 607 mmHg 51%
    02:00 +3°C° 0 mm 2 mps 606 mmHg 50%
    03:00 +3°C° 0 mm 2 mps 606 mmHg 49%
    04:00 +4°C° 0 mm 1 mps 606 mmHg 48%
    05:00 +4°C° 0 mm 1 mps 605 mmHg 47%
    06:00 +4°C° 0 mm 1 mps 606 mmHg 46%
    07:00 +5°C° 0 mm 1 mps 606 mmHg 44%
    08:00 +5°C° 0 mm 1 mps 606 mmHg 43%
    09:00 +6°C° 0 mm 1 mps 606 mmHg 40%
    10:00 +8°C° 0 mm 1 mps 606 mmHg 37%
    11:00 +9°C° 0 mm 1 mps 607 mmHg 34%
    12:00 +9°C° 0 mm 1 mps 607 mmHg 32%
    13:00 +10°C° 0 mm 1 mps 607 mmHg 31%
    14:00 +11°C° 0 mm 1 mps 606 mmHg 29%
    15:00 +11°C° 0 mm 1 mps 606 mmHg 30%
    16:00 +11°C° 0 mm 1 mps 606 mmHg 30%
    17:00 +10°C° 0 mm 1 mps 606 mmHg 31%
    18:00 +9°C° 0 mm 1 mps 606 mmHg 33%
    19:00 +8°C° 0 mm 1 mps 606 mmHg 35%
    20:00 +7°C° 0 mm 1 mps 606 mmHg 38%
    21:00 +7°C° 0 mm 1 mps 607 mmHg 39%
    22:00 +6°C° 0 mm 1 mps 607 mmHg 39%
    23:00 +6°C° 0 mm 1 mps 607 mmHg 40%

    Tomorrow, 23 February, Friday

    Time Temperature Precipitation Wind Pressure Humidity
    00:00 +5°C° 0 mm 1 mps 606 mmHg 40%
    01:00 +5°C° 0 mm 1 mps 606 mmHg 40%
    02:00 +5°C° 0 mm 1 mps 606 mmHg 40%
    03:00 +4°C° 0 mm 1 mps 606 mmHg 41%
    04:00 +4°C° 0 mm 1 mps 605 mmHg 41%
    05:00 +4°C° 0 mm 1 mps 605 mmHg 42%
    06:00 +4°C° 0 mm 1 mps 605 mmHg 41%
    07:00 +5°C° 0 mm 1 mps 605 mmHg 41%
    08:00 +5°C° 0 mm 1 mps 606 mmHg 40%
    09:00 +6°C° 0 mm 1 mps 606 mmHg 38%
    10:00 +8°C° 0 mm 1 mps 606 mmHg 35%
    11:00 +9°C° 0 mm 1 mps 607 mmHg 32%
    12:00 +9°C° 0 mm 1 mps 606 mmHg 33%
    13:00 +9°C° 0 mm 2 mps 606 mmHg 34%
    14:00 +9°C° 0 mm 2 mps 606 mmHg 35%
    15:00 +8°C° 0.2 mm 2 mps 605 mmHg 39%
    16:00 +8°C° 0.2 mm 2 mps 605 mmHg 42%
    17:00 +7°C° 0.2 mm 2 mps 605 mmHg 45%
    18:00 +7°C° 0.3 mm 2 mps 605 mmHg 49%
    19:00 +6°C° 0.3 mm 2 mps 605 mmHg 53%
    20:00 +4°C° 0.3 mm 3 mps 605 mmHg 56%
    21:00 +3°C° 0.4 mm 3 mps 605 mmHg 61%
    22:00 +3°C° 0.4 mm 3 mps 605 mmHg 65%
    23:00 +2°C° 0.4 mm 3 mps 605 mmHg 70%

    Day after tomorrow, 24 February, Saturday

    Time Temperature Precipitation Wind Pressure Humidity
    00:00 +2°C° 0.4 mm 3 mps 605 mmHg 73%
    01:00 +3°C° 0.4 mm 2 mps 605 mmHg 75%
    02:00 +2°C° 0.4 mm 2 mps 604 mmHg 78%
    03:00 +2°C° 0.4 mm 2 mps 604 mmHg 79%
    04:00 +2°C° 0.4 mm 2 mps 604 mmHg 80%
    05:00 +2°C° 0.4 mm 2 mps 604 mmHg 81%
    06:00 +2°C° 0.2 mm 2 mps 604 mmHg 80%
    07:00 +2°C° 0.2 mm 2 mps 604 mmHg 79%
    08:00 +2°C° 0.2 mm 2 mps 605 mmHg 79%
    09:00 +3°C° 0.1 mm 2 mps 605 mmHg 76%
    10:00 +3°C° 0.1 mm 2 mps 605 mmHg 74%
    11:00 +4°C° 0.1 mm 2 mps 606 mmHg 72%
    12:00 +5°C° 0 mm 2 mps 606 mmHg 70%
    13:00 +5°C° 0 mm 2 mps 605 mmHg 68%
    14:00 +6°C° 0 mm 2 mps 605 mmHg 65%
    15:00 +6°C° 0 mm 2 mps 605 mmHg 64%
    16:00 +6°C° 0 mm 2 mps 605 mmHg 63%
    17:00 +7°C° 0 mm 2 mps 605 mmHg 63%
    18:00 +7°C° 0 mm 1 mps 606 mmHg 64%
    19:00 +6°C° 0 mm 1 mps 606 mmHg 66%
    20:00 +6°C° 0 mm 1 mps 607 mmHg 68%
    21:00 +6°C° 0 mm 1 mps 607 mmHg 68%
    22:00 +5°C° 0 mm 1 mps 607 mmHg 69%
    23:00 +5°C° 0 mm 1 mps 608 mmHg 69%

    25 February, Sunday

    Time Temperature Precipitation Wind Pressure Humidity
    00:00 +5°C° 0 mm 1 mps 607 mmHg 70%
    01:00 +4°C° 0 mm 1 mps 607 mmHg 70%
    02:00 +4°C° 0 mm 1 mps 607 mmHg 71%
    03:00 +4°C° 0 mm 1 mps 607 mmHg 70%
    04:00 +4°C° 0 mm 1 mps 607 mmHg 70%
    05:00 +3°C° 0 mm 1 mps 607 mmHg 70%
    06:00 +4°C° 0 mm 1 mps 607 mmHg 67%
    07:00 +4°C° 0 mm 1 mps 608 mmHg 65%
    08:00 +5°C° 0 mm 1 mps 608 mmHg 63%
    09:00 +6°C° 0 mm 1 mps 609 mmHg 59%
    10:00 +7°C° 0 mm 1 mps 609 mmHg 56%
    11:00 +8°C° 0 mm 1 mps 610 mmHg 52%
    12:00 +9°C° 0.1 mm 1 mps 610 mmHg 52%
    13:00 +9°C° 0.1 mm 1 mps 609 mmHg 52%
    14:00 +8°C° 0.1 mm 2 mps 609 mmHg 52%
    15:00 +8°C° 0.3 mm 2 mps 609 mmHg 54%
    16:00 +7°C° 0.3 mm 2 mps 609 mmHg 56%
    17:00 +7°C° 0.3 mm 2 mps 609 mmHg 58%
    18:00 +6°C° 0.2 mm 2 mps 609 mmHg 59%
    19:00 +6°C° 0.2 mm 2 mps 609 mmHg 60%
    20:00 +5°C° 0.2 mm 2 mps 609 mmHg 62%
    21:00 +5°C° 0.1 mm 2 mps 609 mmHg 63%
    22:00 +5°C° 0.1 mm 2 mps 609 mmHg 64%
    23:00 +4°C° 0.1 mm 2 mps 609 mmHg 65%

    26 February, Monday

    Time Temperature Precipitation Wind Pressure Humidity
    00:00 +4°C° 0.1 mm 2 mps 608 mmHg 66%
    01:00 +4°C° 0.1 mm 2 mps 608 mmHg 67%
    02:00 +4°C° 0.1 mm 2 mps 608 mmHg 68%
    03:00 +4°C° 0.1 mm 2 mps 607 mmHg 69%
    04:00 +3°C° 0.1 mm 2 mps 607 mmHg 70%
    05:00 +3°C° 0.1 mm 2 mps 606 mmHg 71%
    06:00 +3°C° 0.1 mm 2 mps 607 mmHg 71%
    07:00 +4°C° 0.1 mm 2 mps 607 mmHg 71%
    08:00 +4°C° 0.1 mm 2 mps 607 mmHg 71%
    09:00 +4°C° 0.2 mm 2 mps 607 mmHg 71%
    10:00 +5°C° 0.2 mm 2 mps 607 mmHg 70%
    11:00 +6°C° 0.2 mm 2 mps 607 mmHg 70%
    12:00 +6°C° 0.2 mm 2 mps 607 mmHg 69%
    13:00 +7°C° 0.2 mm 2 mps 607 mmHg 68%
    14:00 +7°C° 0.2 mm 2 mps 606 mmHg 67%
    15:00 +7°C° 0.2 mm 2 mps 606 mmHg 67%
    16:00 +7°C° 0.2 mm 2 mps 606 mmHg 67%
    17:00 +7°C° 0.2 mm 2 mps 606 mmHg 67%
    18:00 +6°C° 0.3 mm 2 mps 606 mmHg 68%
    19:00 +6°C° 0.3 mm 2 mps 606 mmHg 70%
    20:00 +5°C° 0.3 mm 2 mps 606 mmHg 72%
    21:00 +5°C° 0.4 mm 2 mps 606 mmHg 73%
    22:00 +5°C° 0.4 mm 2 mps 606 mmHg 74%
    23:00 +5°C° 0.4 mm 2 mps 606 mmHg 74%

    27 February, Tuesday

    Time Temperature Precipitation Wind Pressure Humidity
    00:00 +5°C° 0.4 mm 2 mps 606 mmHg 76%
    01:00 +4°C° 0.4 mm 2 mps 606 mmHg 77%
    02:00 +4°C° 0.4 mm 2 mps 606 mmHg 78%
    03:00 +5°C° 0.2 mm 1 mps 606 mmHg 78%
    04:00 +5°C° 0.2 mm 1 mps 606 mmHg 79%
    05:00 +5°C° 0.2 mm 1 mps 606 mmHg 79%
    06:00 +5°C° 0 mm 1 mps 606 mmHg 78%
    07:00 +5°C° 0 mm 1 mps 607 mmHg 76%
    08:00 +5°C° 0 mm 1 mps 607 mmHg 75%
    09:00 +6°C° 0 mm 1 mps 608 mmHg 72%
    10:00 +8°C° 0 mm 1 mps 608 mmHg 68%
    11:00 +9°C° 0 mm 1 mps 608 mmHg 65%
    12:00 +9°C° 0 mm 1 mps 608 mmHg 63%
    13:00 +10°C° 0 mm 1 mps 608 mmHg 60%
    14:00 +11°C° 0 mm 1 mps 608 mmHg 58%
    15:00 +11°C° 0 mm 1 mps 608 mmHg 57%
    16:00 +11°C° 0 mm 1 mps 608 mmHg 56%
    17:00 +11°C° 0 mm 1 mps 608 mmHg 55%
    18:00 +10°C° 0 mm 1 mps 608 mmHg 57%
    19:00 +9°C° 0 mm 1 mps 608 mmHg 60%
    20:00 +8°C° 0 mm 1 mps 608 mmHg 62%
    21:00 +8°C° 0 mm 1 mps 608 mmHg 63%
    22:00 +7°C° 0 mm 1 mps 608 mmHg 63%
    23:00 +7°C° 0 mm 1 mps 608 mmHg 64%
    Show more